www.pogodaiklimat.ru

Погода и климат >> Архив погоды >> Мексика >> Санта-Розалия


ПОГОДА в Санта-Розалии

  • Прогноз погоды в Санта-Розалии
  • Монитор погоды в Санта-Розалии

АРХИВ ПОГОДЫ в Санта-Розалии

Время (UTC), дата Ветер
(напр.,м/с)
 
Видим.   Явления Облачность Т
(С)
Тd
(С)
f
(%)
Тe
(С)
Тes
(С)
Комфортность P
(гПа)
Po
(гПа)
Тmin
(С)
Tmax
(С)
R
(мм)
R24
(мм)
S
(см)
09 15.09 Ю 1 н/о н/о +28.1 +28.1 100 +47 +47 опасность
перегрева
1011.6 1002.3
12 15.09 ЮЗ 2 н/о н/о +26.5 -4 -4 1010.9 1001.6 +27.6 +33.3
15 15.09 С 1 н/о н/о +31.9 +25.8 70 +47 +47 опасность
перегрева
1012.1 1002.9
18 15.09 В 4 н/о н/о +31.9 +26.5 73 +48 +48 опасность
перегрева
1012.4 1003.2 +27.2 +32.6
21 15.09 В 5 н/о н/о +31.8 +26.9 75 +49 +49 опасность
перегрева
1010.8 1001.6
00 16.09 В 3 н/о н/о +31.2 +26.9 78 +49 +49 опасность
перегрева
1009.3 +27.2 +32.6
03 16.09 ЮВ 2 н/о н/о +29.7 +26.1 81 +45 +45 опасность
перегрева
1010.5 1001.2
06 16.09 Ю 2 н/о н/о +28.9 +27.7 93 +47 +47 опасность
перегрева
1011.8 1002.5 +27.2 +32.6
09 16.09 ЮЗ 3 н/о н/о +29.1 +20.2 59 +36 +36 очень
душно
1011.1 1001.8
12 16.09 ЮЗ 3 н/о н/о +14.8 -5 -5 1010.8 1001.5 +28.1 +32.6
15 16.09 ЮЗ 3 н/о н/о +30.7 +20.1 53 +37 +37 очень
душно
1012.0 1002.8
18 16.09 В 3 н/о н/о +32.3 +24.7 64 +45 +45 опасность
перегрева
1012.2 1003.0 +27.9 +33.9
21 16.09 В 4 н/о н/о +31.9 +25.9 71 +47 +47 опасность
перегрева
1010.5 1001.3
00 17.09 В 4 н/о н/о +31.2 +26.3 75 +47 +47 опасность
перегрева
1009.0 +27.9 +33.9
03 17.09 Ю 1 н/о н/о +30.6 +24.6 70 +43 +43 опасность
перегрева
1010.1 1000.9
06 17.09 З 1 н/о н/о +28.5 +25.8 85 +42 +42 опасность
перегрева
1011.3 1002.0 +27.9 +33.9
09 17.09 ЮЗ 2 н/о н/о +29.2 +13.7 39 +31 +31 жарко 1010.8 1001.5
12 17.09 ЮЗ 2 н/о н/о +12.8 -4 -4 1010.8 1001.5 +28.0 +33.9
15 17.09 Ю 1 н/о н/о +31.8 +14.1 34 +33 +33 жарко 1012.0 1002.8
18 17.09 С 2 н/о н/о +32.3 +25.2 66 +46 +46 опасность
перегрева
1012.3 1003.1 +27.7 +33.9
21 17.09 В 3 н/о н/о +32.6 +26.8 72 +50 +50 опасность
перегрева
1010.5 1001.3
00 18.09 В 3 н/о н/о +31.5 +26.7 76 +49 +49 опасность
перегрева
1009.1 +27.7 +33.9
03 18.09 ЮВ 1 н/о н/о +29.7 +24.8 75 +42 +42 опасность
перегрева
1009.7 1000.4
06 18.09 З 1 н/о н/о +29.8 +21.7 62 +38 +38 очень
душно
1010.3 1001.0 +27.7 +33.9
09 18.09 ЮЗ 3 н/о н/о +30.3 +18.1 48 +35 +35 очень
душно
1009.7 1000.5
12 18.09 ЮЗ 4 н/о н/о +17.0 -6 -6 1009.4 1000.1 +28.7 +33.9
15 18.09 ЮЗ 2 н/о н/о +32.1 +16.7 40 +35 +35 очень
душно
1010.7 1001.5
18 18.09 СВ 2 н/о н/о +33.9 +21.7 49 +42 +42 опасность
перегрева
1011.2 1002.1 +28.7 +34.5
21 18.09 В 5 н/о н/о +32.0 +27.0 75 +50 +50 опасность
перегрева
1010.1 1000.9
00 19.09 В 2 н/о н/о +32.9 +25.0 63 +46 +46 опасность
перегрева
1008.5 +28.7 +34.5
03 19.09 ЮВ 2 н/о н/о +31.3 +23.2 62 +42 +42 опасность
перегрева
1009.2 1000.0
06 19.09 ЮЗ 2 н/о н/о +30.9 +20.5 54 +38 +38 очень
душно
1009.8 1000.6 +28.7 +34.5
09 19.09 ЮЗ 3 н/о н/о +30.5 +19.4 52 +36 +36 очень
душно
1008.8 999.6
12 19.09 ЮЗ 3 н/о н/о +17.8 -5 -5 1008.2 998.9 +28.9 +34.5
15 19.09 Ю 1 н/о н/о +33.2 +16.6 37 +36 +36 очень
душно
1009.0 999.9
18 19.09 С 3 н/о н/о +32.4 +20.4 49 +39 +39 очень
душно
1009.8 1000.6 +28.9 +34.8
21 19.09 СВ 2 н/о н/о +33.5 +23.3 55 +44 +44 опасность
перегрева
1007.8 998.7
00 20.09 В 2 н/о н/о +32.6 +25.6 67 +48 +48 опасность
перегрева
1006.5 +28.9 +34.8
03 20.09 штиль 0 н/о н/о +28.6 +27.7 95 +47 +47 опасность
перегрева
1006.6 997.3
06 20.09 ЮЗ 2 н/о н/о +29.9 +20.2 56 +36 +36 очень
душно
1007.9 998.7 +28.5 +34.8
09 20.09 ЮЗ 1 н/о н/о +29.4 +20.5 59 +36 +36 очень
душно
1007.5 998.3
12 20.09 ЮЗ 1 н/о н/о +15.9 -2 -2 1007.5 998.2 +28.3 +34.8
15 20.09 ЮВ 1 н/о н/о +32.1 +16.1 38 +35 +35 очень
душно
1009.2 1000.0
18 20.09 В 2 н/о н/о +33.2 +24.1 59 +45 +45 опасность
перегрева
1009.6 1000.5 +28.1 +33.2
21 20.09 В 6 н/о н/о +32.0 +26.8 74 +49 +49 опасность
перегрева
1008.3 999.1
00 21.09 В 6 н/о н/о +30.8 +25.8 75 +46 +46 опасность
перегрева
1007.8 +28.1 +33.9
03 21.09 ЮВ 5 н/о н/о +29.2 +26.1 83 +44 +44 опасность
перегрева
1008.3 999.0
06 21.09 ЮВ 3 н/о н/о +28.9 +25.1 80 +42 +42 опасность
перегрева
1009.1 999.8 +28.1 +33.9
09 21.09 ЮВ 3 н/о н/о +28.0 +25.1 84 +40 +40 очень
душно
1009.3 1000.0
12 21.09 Ю 2 н/о н/о +24.9 -4 -4 1009.3 1000.0 +27.5 +33.9
15 21.09 В 2 н/о н/о +29.4 +25.2 78 +43 +43 опасность
перегрева
1010.5 1001.2
18 21.09 В 1 н/о н/о +30.1 +25.3 76 +44 +44 опасность
перегрева
1010.8 1001.5 +27.0 +30.1 0.4

 

Местоположение метеостанции Санта-Розалия (Мексика): широта 27.28 долгота -112.25 высота над уровнем моря 82 м.

В архиве по умолчанию представлена погода в Санта-Розалии за последнюю неделю. Архивные данные за месяц целиком и за предыдущие месяцы, начиная с января 2011 года, Вы можете получить, выбрав интересующий диапазон дат из раскрывающегося списка и нажав кнопку "Ввод!".


*Определитесь, кто Вы:
робот инопланетянин человек

Внимание! Время в таблицах - всемирное. Для получения местного времени необходимо прибавить поправку, которая равна -7 ч.

Смотрите также архив погоды в соседних городах и на ближайших метеорологических станциях:

Погода в Гуаймасе (Мексика) (153 км)
Погода в Лорето (Мексика) (169 км)
Погода в Эмпальме (Мексика) (170 км)
Погода в Эрмосильо (Мексика) (233 км)
Погода в Эрмосильо Магна (Мексика) (237 км)
Погода в Сьюдад-Обрегоне (Мексика) (239 км)
Погода в Сьюдад-Конститусьоне (Мексика) (265 км)
Погода в Альтаре (Мексика) (384 км)
Погода в Ла-Пасе (Мексика) (397 км)
Погода в Чойсе (Мексика) (406 км)

Пояснения к столбцам:

Ветер - указаны скорость ветра в м/с - средняя за 10 мин, порывы в срок и между сроками (в фигурных скобках) и направление, откуда дует ветер: С - северный, СВ - северо-восточный, В - восточный, ЮВ - юго-восточный, Ю - южный, ЮЗ - юго-западный, З - западный, СЗ - северо-западный.
Видимость - горизонтальная дальность видимости в метрах или километрах. При видимости от 1 до 10 км при отсутствии осадков обычно наблюдается дымка, при ухудшении видимости до 1 км и менее - туман. В сухую погоду видимость может ухудшаться дымом, пылью или мглою.
Явления - указаны атмосферные явления, наблюдавшиеся в срок или в последний час перед сроком; фигурными скобками обозначены явления, наблюдавшиеся между сроками (за 1-3 часа до срока); квадратными скобками обозначены град или гололедные отложения с указанием их диаметра в мм.
Облачность - указаны через наклонную черту общая и нижняя облачность в баллах и высота нижней границы облаков в метрах; квадратными скобками обозначены формы облаков: Ci - перистые, Cs - перисто-слоистые, Cc - перисто-кучевые, Ac - высококучевые, As - высокослоистые, Sc - слоисто-кучевые, Ns - слоисто-дождевые, Cu - кучевые, Cb - кучево-дождевые. Подробнее классификацию облаков см. в Атласе облаков (PDF).
T - Температура воздуха - температура, измеренная на высоте 2 м над землей.
Td - Температура точки росы - температура, при понижении до которой содержащийся в воздухе водяной пар достигнет насыщения.
f - Относительная влажность воздуха - влажноcть воздуха, измеренная на высоте 2 м над землей.
Te - Эффективная температура - температура, которую ощущает одетый по сезону человек в тени. Характеристика душности погоды. При расчете учитывается влияние влажности воздуха и скорости ветра на теплоощущения человека.
Tes - Эффективная температура на солнце - температура, которую ощущает человек, с поправкой на солнечный нагрев. Характеристика знойности погоды. Зависит от высоты солнца над горизонтом, облачности и скорости ветра. Ночью, в пасмурную погоду, а также при ветре 12 м/с и более поправка равна нулю.
P - Атмосферное давление - приведенное к уровню моря атмосферное давление.
Po - Атмосферное давление - измеренное на уровне метеостанции атмосферное давление.
Tmin - Минимальная температура - минимум температуры воздуха на высоте 2 м над землей.
Tmax - Максимальная температура - максимум температуры воздуха на высоте 2 м над землей.
R - Количество осадков - Количество выпавших осадков за период времени, мм. При наведении курсора мыши на число - период времени, за который выпало указанное количество осадков.
R24 - Количество осадков - Количество выпавших осадков за 24 часа, мм.
S - Снежный покров - Высота снежного покрова, см. При наведении курсора мыши на число - состояние снежного покрова и степень покрытия местности в баллах.